Weather History for Salisbury, MD

Change the Weather History Date:

Sunday, September 29, 2013

  Actual Average Record
Temperature  
Mean Temperature 65 °F 63 °F  
Max Temperature 76 °F 74 °F 94 °F (1921)
Min Temperature 53 °F 53 °F 35 °F (1914)
Degree Days  
Heating Degree Days 0 4  
Month to date heating degree days 26 41  
Since 1 July heating degree days 26 43  
Cooling Degree Days 0 2  
Month to date cooling degree days 169 140  
Year to date cooling degree days 1532 1123  
Growing Degree Days 15 (Base 50)    
Moisture  
Dew Point 52 °F    
Average Humidity 67    
Maximum Humidity 93    
Minimum Humidity 41    
Precipitation  
Precipitation 0.00 in 0.14 in 1.25 in (1908)
Month to date precipitation 0.77 3.85  
Year to date precipitation 40.45 34.92  
Snow  
Snow 0.00 in 0.00 in 0.00 in (2002)
Month to date snowfall 0.0 0.0  
Since 1 July snowfall 0.0 0.0  
Snow Depth 0.00 in    
Sea Level Pressure  
Sea Level Pressure 30.13 in    
Wind  
Wind Speed 5 mph (NE)    
Max Wind Speed 16 mph    
Max Gust Speed 22 mph    
Visibility 10 miles    
Events      
T = Trace of Precipitation, MM = Missing Value Source: NWS Daily Summary

Daily Weather History Graph

Daily Weather History Graph

Search for Another Location

Airport:

Trip Planner

Search our weather history database for the weather conditions in past years. The results will help you decide how hot, cold, wet, or windy it might be!

Date:

Astronomy

Sep. 29, 2013 Rise Set
Actual Time 6:56 AM EDT 6:47 PM EDT
Civil Twilight 6:29 AM EDT 7:14 PM EDT
Nautical Twilight 5:59 AM EDT 7:44 PM EDT
Astronomical Twilight 5:28 AM EDT 8:15 PM EDT
Moon 1:39 AM EDT (9/29) 3:39 PM EDT (9/29)
Length of Visible Light 12h 44m
Length of Day
11h 51m
Waning Crescent, 27% of the Moon is Illuminated
Sep 29
Waning Crescent
Oct 4
New
Oct 11
First Quarter
Oct 18
Full
Oct 26
Last Quarter

Hourly Weather History & Observations

Time (EDT) Temp. Dew Point Humidity Pressure Visibility Wind Dir Wind Speed Gust Speed Precip Events Conditions
12:54 AM 57.9 °F 54.0 °F 87% 30.19 in 10.0 mi NNE 4.6 mph - N/A   Mostly Cloudy
1:54 AM 57.9 °F 54.0 °F 87% 30.18 in 10.0 mi NNE 3.5 mph - N/A   Partly Cloudy
2:54 AM 57.9 °F 54.0 °F 87% 30.16 in 10.0 mi Calm Calm - N/A   Clear
3:54 AM 57.9 °F 55.0 °F 90% 30.15 in 10.0 mi Calm Calm - N/A   Clear
4:54 AM 57.0 °F 54.0 °F 89% 30.14 in 10.0 mi Calm Calm - N/A   Clear
5:54 AM 57.0 °F 54.0 °F 89% 30.15 in 10.0 mi Calm Calm - N/A   Clear
6:54 AM 55.9 °F 53.1 °F 90% 30.15 in 10.0 mi NNW 3.5 mph - N/A   Clear
7:54 AM 59.0 °F 55.9 °F 90% 30.16 in 8.0 mi Calm Calm - N/A   Clear
8:54 AM 64.0 °F 59.0 °F 84% 30.17 in 10.0 mi NE 5.8 mph - N/A   Overcast
9:54 AM 71.1 °F 57.9 °F 63% 30.16 in 10.0 mi NE 13.8 mph - N/A   Mostly Cloudy
10:54 AM 72.0 °F 55.9 °F 57% 30.16 in 10.0 mi NE 11.5 mph - N/A   Mostly Cloudy
11:54 AM 73.9 °F 51.1 °F 45% 30.15 in 10.0 mi ENE 9.2 mph - N/A   Clear
12:54 PM 75.0 °F 51.1 °F 43% 30.13 in 10.0 mi NE 12.7 mph - N/A   Partly Cloudy
1:54 PM 75.0 °F 50.0 °F 41% 30.12 in 10.0 mi NE 12.7 mph 17.3 mph N/A   Clear
2:54 PM 75.0 °F 50.0 °F 41% 30.10 in 10.0 mi ENE 11.5 mph 19.6 mph N/A   Clear
3:54 PM 73.0 °F 48.0 °F 41% 30.09 in 10.0 mi NE 12.7 mph 19.6 mph N/A   Clear
4:54 PM 71.1 °F 46.9 °F 42% 30.09 in 10.0 mi NE 12.7 mph - N/A   Clear
5:54 PM 68.0 °F 48.9 °F 50% 30.09 in 10.0 mi NE 8.1 mph - N/A   Clear
6:54 PM 62.1 °F 50.0 °F 65% 30.08 in 10.0 mi NNE 3.5 mph - N/A   Clear
7:54 PM 60.1 °F 51.1 °F 72% 30.09 in 10.0 mi Calm Calm - N/A   Clear
8:54 PM 55.9 °F 50.0 °F 80% 30.09 in 10.0 mi Calm Calm - N/A   Clear
9:54 PM 55.9 °F 51.1 °F 84% 30.09 in 10.0 mi Calm Calm - N/A   Partly Cloudy
10:54 PM 55.0 °F 50.0 °F 83% 30.08 in 10.0 mi Calm Calm - N/A   Clear
11:54 PM 54.0 °F 50.0 °F 86% 30.07 in 10.0 mi Calm Calm - N/A   Clear